Location: Harmony
(28.2000°N, 81.1500°W)
Time: 23:22:54
(UTC-05:00)

Meteor 2-11 Rocket - Pass Details

Date: 18 December 2017
Orbit: 938 x 958 km, 82.5° (Epoch: 21 January)

Event Time Altitude Azimuth Distance (km) Brightness Sun altitude
Rises 18:25:43 0° 185° (S) 3,621 7.8 -11.7°
Reaches altitude 10° 18:28:12 10° 185° (S) 2,678 7.1 -12.2°
Maximum altitude 18:34:21 88° 276° (W) 961 4.5 -13.5°
Drops below altitude 10° 18:40:31 10° 5° (N) 2,686 6.6 -14.7°
Sets 18:43:01 0° 6° (N) 3,632 7.2 -15.3°
